Regional Weather Roundup
Issued by NWS

Home | Current Version | Previous Version | Graphics & Text | Print | Product List | Glossary On
Versions: 1 2 3 4 5 6 7 8 9 10 11 12 13 14 15 16 17 18 19 20 21 22 23 24 25 26 27 28 29 30 31 32 33 34 35 36 37 38 39 40 41 42 43 44 45 46 47 48 49 50
000
ASUS43 KIND 241809
RWRIN

WEATHER ROUNDUP FOR INDIANA
NATIONAL WEATHER SERVICE INDIANAPOLIS IN
200 PM EDT SAT SEP 24 2016

NOTE: "FAIR" INDICATES FEW OR NO CLOUDS BELOW 12,000 FEET WITH NO
SIGNIFICANT WEATHER AND/OR OBSTRUCTIONS TO VISIBILITY.

* - STATION DOES NOT REPORT WEATHER SUCH AS PRECIPITATION OR FOG.

+ - STATION NOT QUALITY CONTROLLED BY THE NATIONAL WEATHER SERVICE.
    USE DATA WITH CAUTION...ESPECIALLY DEWPOINT AND RELATIVE
    HUMIDITY OBSERVATIONS.

INZ001>003-010>013-019-020-241900-
NORTHWEST INDIANA

CITY           SKY/WX    TMP DP  RH WIND       PRES   REMARKS
GARY /AIRPORT/ MOSUNNY   73  66  78 N9        30.18F
KNOX *+        PTSUNNY   75  41  29 E8        30.18F VSB 1/2
LA PORTE +     MOSUNNY   76  64  65 SE6       30.19F
6HR MIN TEMP:  64; 6HR MAX TEMP:  76;

MICHIGAN CITY+ MOSUNNY   75  63  64 MISG      30.19S
MONTICELLO +   SUNNY     77  61  57 E8        30.17S
6HR MIN TEMP:  67; 6HR MAX TEMP:  77;

RENSSELAER +   MOSUNNY   81  64  57 E8        30.16F
VALPARAISO     MOSUNNY   77  63  61 E7        30.18F
6HR MIN TEMP:  64; 6HR MAX TEMP:  77;


$$

LMZ046-743>745-241900-
SOUTHERN LAKE MICHIGAN

STATION/POSITION TIME  TEMP    WIND        PRES    WAVE
                       AIR SEA DIR/SP/G            HT
                 (UTC) (F)     (DEG/KT/KT) (MB)    (FT)
BURNS HARBOR     1707   69      40/  8/ 10 1022.4F
MICHIGAN CITY    1700   67      20/  8/  8   N/A
5NW MICH CITY    1800   70 71   30/ 10/ 12   N/A     2

$$

INZ004-005-014>016-021>024-241900-
NORTH CENTRAL INDIANA

CITY           SKY/WX    TMP DP  RH WIND       PRES   REMARKS
ELKHART        MOSUNNY  N/A N/A N/A E9        30.20F
GOSHEN         PTSUNNY   73  60  63 E7        30.20F
6HR MIN TEMP:  63; 6HR MAX TEMP:  74;

LOGANSPORT +   CLOUDY    72  63  73 E8        30.19F
PERU/GRISSOM   CLOUDY    71  64  78 E8        30.18S
6HR MIN TEMP:  66; 6HR MAX TEMP:  71;

ROCHESTER +    PTSUNNY   73  64  73 E9        30.19F
SOUTH BEND     SUNNY     72  62  71 E10       30.20S
6HR MIN TEMP:  60; 6HR MAX TEMP:  72;

WARSAW +       MOSUNNY   72  55  56 E7        30.20F

$$

INZ006>009-017-018-025>027-241900-
NORTHEAST INDIANA

CITY           SKY/WX    TMP DP  RH WIND       PRES   REMARKS
ANGOLA *+      CLOUDY    72  64  78 E7        30.22F
AUBURN +       PTSUNNY   72  57  60 E8        30.22F
FORT WAYNE     PTSUNNY   72  61  68 NE12      30.20F
6HR MIN TEMP:  63; 6HR MAX TEMP:  73;

HUNTINGTON +   PTSUNNY  N/A N/A N/A E8        30.19F
KENDALLVILLE + CLOUDY    71  57  60 E7        30.22F

$$

INZ028-029-035-036-043>045-051>053-241900-
WEST CENTRAL INDIANA

CITY           SKY/WX    TMP DP  RH WIND       PRES   REMARKS
CRAWFORDSVL +  CLOUDY    77  68  73 E6        30.16F
6HR MIN TEMP:  63; 6HR MAX TEMP:  77;

GREENCASTLE +  SUNNY     81  72  74 E3        30.15F
LAFAYETTE      SUNNY     75  68  78 E10       30.15F
6HR MIN TEMP:  67; 6HR MAX TEMP:  76;

TERRE HAUTE    MOSUNNY   83  66  56 NW3       30.12F
6HR MIN TEMP:  62; 6HR MAX TEMP:  84;


$$

INZ030>032-037>040-046>048-054>057-064-065-241900-
CENTRAL INDIANA

CITY           SKY/WX    TMP DP  RH WIND       PRES   REMARKS
ANDERSON       CLOUDY    70  66  88 NE6       30.20S FOG
COLUMBUS       SUNNY     81  72  74 CALM      30.15F
FISHERS *+     SUNNY     77  70  78 CALM      30.17F
GREENWOOD *+   SUNNY     79  70  73 E6        30.17F
INDIANAPOLIS   PTSUNNY   78  67  68 NE7       30.16S HAZE
6HR MIN TEMP:  68; 6HR MAX TEMP:  78;

-EAGLE CREEK   PTSUNNY   76  66  71 MISG      30.16F
6HR MIN TEMP:  67; 6HR MAX TEMP:  76;

MARION +       CLOUDY    70  63  78 E8        30.19F
MT COMFORT *+  SUNNY     77  66  69 NE5       30.17F
SHELBYVILLE    SUNNY     82  66  58 VRB6      30.15F
6HR MIN TEMP:  69; 6HR MAX TEMP:  82;

ZIONSVILLE +   PTSUNNY   73  66  79 E7        30.18F HAZE
6HR MIN TEMP:  63; 6HR MAX TEMP:  73;


$$

INZ033-034-041-042-049-050-058-059-241900-
EAST CENTRAL INDIANA

CITY           SKY/WX    TMP DP  RH WIND       PRES   REMARKS
MUNCIE         CLOUDY    72  65  78 E7        30.19F
6HR MIN TEMP:  66; 6HR MAX TEMP:  72;


$$

INZ060-061-067>069-081>083-085>088-241900-
SOUTHWEST INDIANA

CITY           SKY/WX    TMP DP  RH WIND       PRES   REMARKS
EVANSVILLE     SUNNY     90  64  42 CALM      30.11F
6HR MIN TEMP:  66; 6HR MAX TEMP:  90;

HUNTINGBURG *+   N/A     88  66  48 N5        30.12F
6HR MIN TEMP:  63; 6HR MAX TEMP:  88;

WASHINGTON +   PTSUNNY   86  66  51 MISG      30.11F

$$

INZ062-063-066-070>080-084-089>092-241900-
SOUTH CENTRAL AND SOUTHEAST INDIANA

CITY           SKY/WX    TMP DP  RH WIND       PRES   REMARKS
BEDFORD +      MOSUNNY  N/A N/A N/A CALM      30.13
BLOOMINGTON    MOSUNNY   85  67  54 E3        30.14F
6HR MIN TEMP:  61; 6HR MAX TEMP:  86;

MADISON *+     SUNNY     86  63  45 CALM      30.16S
NORTH VERNON + SUNNY     82  73  74 CALM      30.16F
SEYMOUR +      SUNNY     84  66  54 NW3       30.13F

$$




USA.gov is the U.S. government's official web portal to all federal, state and local government web resources and services.